User: anonymous   Login
Location: Waldport
(44.4270°N, 124.0680°W)
Time: 15:10:49
(UTC-07:00)
Language:

Cosmos 1570 Rocket - Orbit

View from above orbital plane
View from above orbital plane
View from above satellite
View from above satellite

Ground track
Ground track

The orbit data is extracted from the following two-line orbital elements,

1 15032U 84056B   15085.55411830  .00000135  00000-0  56923-4 0  9998
2 15032 074.0700 123.3928 0016467 134.1177 026.9971 14.34541748610245
Epoch (UTC): 26 March 2015 13:17:55
Eccentricity: 0.0016467
inclination: 74.0700°
perigee height: 765 km
apogee height: 788 km
right ascension of ascending node: 123.3928°
argument of perigee: 134.1177°
revolutions per day: 14.34541748
mean anomaly at epoch: 26.9971°
orbit number at epoch: 61024

The dashed part of the orbit path shows where the satellite is in the earth's shadow,  

DLR